"2016-04-25 00:00:00",1576731,6.068,314.7,1.848,0.429,15.49,105.6514,13.74,14.79,25.54,0,110.7,13.12,14.54,276.7
"2016-04-25 00:00:30",1576732,6.219,316.9,3.853,0.18,15.63,105.6523,13.74,14.79,25.25,0,110.7,13.12,14.54,278.9
"2016-04-25 00:01:00",1576733,6.086,326.5,2.529,0.471,15.9,105.6538,13.75,14.77,25.53,0,110.7,13.12,14.55,288.5
"2016-04-25 00:01:30",1576734,6.469,322.9,5.198,0.441,15.96,105.6478,13.73,14.79,25.51,0,110.7,13.13,14.53,284.9
"2016-04-25 00:02:00",1576735,5.658,324.3,2.217,0.517,15.97,105.6445,13.72,14.76,25.5,0,110.7,13.13,14.52,286.3
"2016-04-25 00:02:30",1576736,6.482,321.6,5.897,0.476,16.05,105.6384,13.71,14.75,25.45,0,110.7,13.13,14.51,283.6
"2016-04-25 00:03:00",1576737,6.21,323.2,3.369,0.427,16.18,105.6249,13.67,14.74,25.59,0,110.7,13.13,14.47,285.2
"2016-04-25 00:03:30",1576738,6.608,324.2,3.47,0.49,16.36,105.6245,13.67,14.73,25.6,0,110.7,13.13,14.47,286.2
"2016-04-25 00:04:00",1576739,7.843,320.1,9.05,1.706,18.41,105.6256,13.67,14.83,26.09,0,110.7,13.08,14.47,282.1
"2016-04-25 00:04:30",1576740,8.37,328.3,6.204,1.248,17.48,105.6307,13.69,14.82,25.5,0,110.7,13.09,14.49,290.3
"2016-04-25 00:05:00",1576741,7.186,324.4,2.719,0.266,15.93,105.6331,13.69,14.71,24.93,0,110.7,13.13,14.49,286.4
"2016-04-25 00:05:30",1576742,6.76,323.3,1.506,0.203,15.83,105.6337,13.69,14.71,24.64,0,110.7,13.13,14.49,285.3
"2016-04-25 00:06:00",1576743,6.599,320.9,1.491,0.153,15.89,105.6387,13.71,14.7,24.84,0,110.7,13.13,14.51,282.9
"2016-04-25 00:06:30",1576744,7.038,316.9,5.732,1.147,17.25,105.6381,13.71,14.84,25.22,0,110.7,13.09,14.51,278.9
"2016-04-25 00:07:00",1576745,7.345,319.2,5.953,1.348,17.18,105.6387,13.71,14.79,25.02,0,110.7,13.09,14.51,281.2
"2016-04-25 00:07:30",1576746,6.932,317,2.637,0.318,15.38,105.6402,13.71,14.7,24.88,0,110.7,13.13,14.51,279.0
"2016-04-25 00:08:00",1576747,6.601,313.9,1.951,0.614,15.31,105.6417,13.72,14.69,24.93,0,110.7,13.13,14.52,275.9
"2016-04-25 00:08:30",1576748,5.657,318.3,3.307,0.176,15.31,105.6352,13.7,14.69,25,0,110.7,13.13,14.50,280.3
"2016-04-25 00:09:00",1576749,5.899,321.7,3.813,0.324,15.43,105.6327,13.69,14.68,25.03,0,110.7,13.13,14.49,283.7
"2016-04-25 00:09:30",1576750,5.952,314.2,2.286,0.18,15.6,105.6284,13.68,14.68,25.13,0,110.7,13.13,14.48,276.2
"2016-04-25 00:10:00",1576751,5.907,310.5,2.159,0.171,15.67,105.6245,13.67,14.68,25.25,0,110.7,13.13,14.47,272.5
"2016-04-25 00:10:30",1576752,5.112,309.9,2.4,0.385,15.77,105.6204,13.66,14.68,25.4,0,110.7,13.13,14.46,271.9
"2016-04-25 00:11:00",1576753,4.497,307.6,3.027,0.351,15.81,105.6198,13.66,14.67,25.45,0,110.7,13.13,14.46,269.6
"2016-04-25 00:11:30",1576754,4.889,313.5,3.463,0.316,15.9,105.6198,13.66,14.67,25.51,0,110.7,13.13,14.46,275.5
"2016-04-25 00:12:00",1576755,4.238,301.8,2.427,0.536,16.03,105.6206,13.66,14.68,25.65,0,110.7,13.13,14.46,263.8
"2016-04-25 00:12:30",1576756,4.104,312.2,4.841,0.414,15.91,105.6207,13.66,14.69,25.67,0,110.7,13.13,14.46,274.2
"2016-04-25 00:13:00",1576757,3.885,308.9,4.875,0.504,15.89,105.6243,13.67,14.69,25.88,0,110.7,13.13,14.47,270.9
"2016-04-25 00:13:30",1576758,4.269,317.7,4.513,0.242,15.92,105.6336,13.69,14.67,26,0,110.7,13.13,14.49,279.7
"2016-04-25 00:14:00",1576759,3.833,313.5,3.206,0.253,16.03,105.637,13.7,14.68,26.08,0,110.7,13.13,14.50,275.5
"2016-04-25 00:14:30",1576760,4.444,317.5,3.594,0.548,15.97,105.6429,13.72,14.68,25.88,0,110.7,13.13,14.52,279.5
"2016-04-25 00:15:00",1576761,6.216,320.7,3.171,0.283,16.08,105.6432,13.72,14.68,25.45,0,110.7,13.13,14.52,282.7
"2016-04-25 00:15:30",1576762,6.324,317.8,2.107,0.222,16.09,105.6432,13.72,14.7,25.46,0,110.7,13.13,14.52,279.8
"2016-04-25 00:16:00",1576763,5.996,314.5,1.267,0.339,16.07,105.6429,13.72,14.71,25.28,0,110.7,13.13,14.52,276.5
"2016-04-25 00:16:30",1576764,6.256,315.8,1.464,0.27,16.08,105.6438,13.72,14.71,25.22,0,110.7,13.13,14.52,277.8
"2016-04-25 00:17:00",1576765,6.057,319.1,4.063,0.325,16.11,105.6435,13.72,14.71,25.34,0,110.7,13.13,14.52,281.1
"2016-04-25 00:17:30",1576766,6.618,318.3,3.805,0.305,16.15,105.6435,13.72,14.71,25.33,0,110.7,13.13,14.52,280.3
"2016-04-25 00:18:00",1576767,6.107,320.8,8.15,1.279,17.53,105.6435,13.72,14.84,25.45,0,110.7,13.09,14.52,282.8
"2016-04-25 00:18:30",1576768,5.149,329.4,10.67,1.102,17.4,105.6429,13.72,14.79,25.64,0,110.7,13.09,14.52,291.4
"2016-04-25 00:19:00",1576769,4.725,322.7,7.305,0.568,15.71,105.6438,13.72,14.72,25.82,0,110.7,13.14,14.52,284.7
"2016-04-25 00:19:30",1576770,5.844,319.2,3.317,0.366,15.67,105.6438,13.72,14.72,25.67,0,110.7,13.14,14.52,281.2
"2016-04-25 00:20:00",1576771,6.046,321.2,4.455,0.715,15.71,105.6438,13.72,14.72,25.59,0,110.7,13.14,14.52,283.2
"2016-04-25 00:20:30",1576772,5.154,314.5,1.802,0.238,15.78,105.6438,13.72,14.71,25.79,0,110.7,13.13,14.52,276.5
"2016-04-25 00:21:00",1576773,5.13,318.4,5.724,0.887,15.87,105.6438,13.72,14.73,25.75,0,110.7,13.13,14.52,280.4
"2016-04-25 00:21:30",1576774,5.548,321.1,7.599,0.452,15.94,105.6438,13.72,14.73,25.59,0,110.7,13.13,14.52,283.1
"2016-04-25 00:22:00",1576775,5.435,317.8,3.244,0.21,15.99,105.6435,13.72,14.73,25.52,0,110.7,13.13,14.52,279.8
"2016-04-25 00:22:30",1576776,5.912,312.7,1.653,0.241,16,105.6438,13.72,14.72,25.14,0,110.7,13.13,14.52,274.7
"2016-04-25 00:23:00",1576777,6.033,318.8,2.636,0.254,16.06,105.6438,13.72,14.73,25.17,0,110.7,13.13,14.52,280.8
"2016-04-25 00:23:30",1576778,6.178,325.2,3.668,0.474,16.13,105.6438,13.72,14.72,24.85,0,110.7,13.13,14.52,287.2
"2016-04-25 00:24:00",1576779,6.662,321.4,1.35,0.487,16.1,105.6438,13.72,14.73,24.76,0,110.7,13.14,14.52,283.4
"2016-04-25 00:24:30",1576780,6.93,323.6,3.588,0.482,16.17,105.6438,13.72,14.73,24.88,0,110.7,13.14,14.52,285.6
"2016-04-25 00:25:00",1576781,7.082,324.2,3.339,0.445,16.26,105.6438,13.72,14.72,24.83,0,110.7,13.13,14.52,286.2
"2016-04-25 00:25:30",1576782,7.129,315.5,5.742,1.098,17.3,105.6438,13.72,14.85,24.86,0,110.7,13.09,14.52,277.5
"2016-04-25 00:26:00",1576783,7.307,319.2,6.964,1.529,17.91,105.6438,13.72,14.84,24.92,0,110.7,13.09,14.52,281.2
"2016-04-25 00:26:30",1576784,6.667,323.5,4.759,0.346,16.3,105.6438,13.72,14.76,24.81,0,110.7,13.14,14.52,285.5
"2016-04-25 00:27:00",1576785,7.175,318.8,2.27,0.306,15.91,105.6438,13.72,14.7,24.91,0,110.7,13.13,14.52,280.8
"2016-04-25 00:27:30",1576786,6.335,317.2,3.125,0.324,15.88,105.6418,13.72,14.71,24.93,0,110.7,13.13,14.52,279.2
"2016-04-25 00:28:00",1576787,6.174,325.5,5.583,0.309,15.94,105.6379,13.71,14.71,24.85,0,110.7,13.13,14.51,287.5
"2016-04-25 00:28:30",1576788,5.773,319.7,5.621,0.233,15.92,105.6339,13.7,14.7,25.04,0,110.7,13.13,14.50,281.7
"2016-04-25 00:29:00",1576789,5.852,314.3,4.592,0.557,15.98,105.6286,13.68,14.7,25.16,0,110.7,13.13,14.48,276.3
"2016-04-25 00:29:30",1576790,4.51,309.9,6.142,0.531,16.05,105.628,13.68,14.69,25.66,0,110.7,13.13,14.48,271.9
"2016-04-25 00:30:00",1576791,4.351,315.2,4.094,0.54,16.06,105.6176,13.65,14.69,25.56,0,110.7,13.13,14.45,277.2
"2016-04-25 00:30:30",1576792,4.422,316.7,12.02,0.351,16.02,105.6153,13.65,14.68,25.72,0,110.7,13.13,14.45,278.7
"2016-04-25 00:31:00",1576793,5.605,325.5,3.022,0.409,16.07,105.6123,13.64,14.68,25.47,0,110.7,13.13,14.44,287.5
"2016-04-25 00:31:30",1576794,5.388,319.8,6.02,0.414,16.2,105.6139,13.64,14.7,25.71,0,110.7,13.13,14.44,281.8
"2016-04-25 00:32:00",1576795,5.607,312.4,4.587,0.428,16.17,105.6179,13.65,14.7,25.93,0,110.7,13.13,14.45,274.4
"2016-04-25 00:32:30",1576796,5.607,311.8,1.777,0.141,16.19,105.6244,13.67,14.69,25.7,0,110.7,13.13,14.47,273.8
"2016-04-25 00:33:00",1576797,6.194,313.3,1.685,0.442,16.18,105.6314,13.69,14.7,25.36,0,110.7,13.13,14.49,275.3
"2016-04-25 00:33:30",1576798,6.965,316,1.728,0.362,16.31,105.6311,13.69,14.68,25.28,0,110.7,13.13,14.49,278.0
"2016-04-25 00:34:00",1576799,7.046,325.5,7.211,1.322,18.21,105.6258,13.67,14.89,25.43,0,110.7,13.08,14.47,287.5
"2016-04-25 00:34:30",1576800,6.941,326.1,8.5,1.034,17.13,105.6232,13.67,14.74,25.39,0,110.7,13.08,14.47,288.1
"2016-04-25 00:35:00",1576801,6.267,318.7,2.287,0.266,15.94,105.6249,13.67,14.7,25.8,0,110.7,13.13,14.47,280.7
"2016-04-25 00:35:30",1576802,7.195,316.7,0.905,0.155,15.98,105.6272,13.68,14.69,25.19,0,110.7,13.13,14.48,278.7
"2016-04-25 00:36:00",1576803,7.358,315.1,1.852,0.255,16.09,105.6294,13.68,14.7,24.9,0,110.7,13.13,14.48,277.1
"2016-04-25 00:36:30",1576804,6.545,317.3,3.584,0.374,16.13,105.6249,13.67,14.69,24.58,0,110.7,13.13,14.47,279.3
"2016-04-25 00:37:00",1576805,6.636,320.9,1.152,0.308,16.18,105.6227,13.67,14.7,24.66,0,110.7,13.14,14.47,282.9
"2016-04-25 00:37:30",1576806,7.29,317.9,1.772,0.235,16.3,105.6213,13.66,14.7,24.87,0,110.7,13.14,14.46,279.9
"2016-04-25 00:38:00",1576807,7.388,316.3,2.404,0.263,16.27,105.6173,13.65,14.69,24.99,0,110.7,13.14,14.45,278.3
"2016-04-25 00:38:30",1576808,7.354,319.9,5.498,0.501,16.36,105.6123,13.64,14.69,24.78,0,110.7,13.14,14.44,281.9
"2016-04-25 00:39:00",1576809,7.08,323.7,3.443,0.46,16.34,105.6103,13.63,14.69,25.4,0,110.7,13.14,14.43,285.7
"2016-04-25 00:39:30",1576810,8.1,330.5,6.248,1.331,17.89,105.61,13.63,14.81,25.4,0,110.7,13.09,14.43,292.5
"2016-04-25 00:40:00",1576811,7.34,324,6.68,1.148,17.4,105.6106,13.64,14.81,24.76,0,110.7,13.09,14.44,286.0
"2016-04-25 00:40:30",1576812,7.29,324.9,8.02,1.205,17.26,105.61,13.63,14.81,25.31,0,110.7,13.09,14.43,286.9
"2016-04-25 00:41:00",1576813,7.409,328.3,7.218,1.384,17.69,105.61,13.63,14.89,24.93,0,110.7,13.09,14.43,290.3
"2016-04-25 00:41:30",1576814,6.04,324.2,1.714,0.226,15.41,105.61,13.63,14.67,24.67,0,110.7,13.14,14.43,286.2
"2016-04-25 00:42:00",1576815,6.637,323.3,3.311,0.198,15.33,105.61,13.63,14.68,24.81,0,110.7,13.13,14.43,285.3
"2016-04-25 00:42:30",1576816,6.206,324,1.726,0.301,15.52,105.61,13.63,14.68,24.74,0,110.7,13.14,14.43,286.0
"2016-04-25 00:43:00",1576817,6.36,320.6,2.696,0.175,15.72,105.61,13.63,14.69,24.49,0,110.7,13.14,14.43,282.6
"2016-04-25 00:43:30",1576818,5.574,316.4,1.525,0.193,15.87,105.61,13.63,14.67,24.42,0,110.7,13.14,14.43,278.4
"2016-04-25 00:44:00",1576819,5.597,320.5,1.741,0.147,16.06,105.61,13.63,14.67,24.24,0,110.7,13.14,14.43,282.5
"2016-04-25 00:44:30",1576820,5.374,319.6,1.601,0.17,16.16,105.61,13.63,14.66,24.1,0,110.7,13.14,14.43,281.6
"2016-04-25 00:45:00",1576821,5.211,316.2,1.765,0.14,16.06,105.61,13.63,14.66,24.23,0,110.7,13.14,14.43,278.2
"2016-04-25 00:45:30",1576822,5.287,321.1,3.903,0.17,16.12,105.61,13.63,14.66,24.66,0,110.7,13.14,14.43,283.1
"2016-04-25 00:46:00",1576823,4.87,316.4,2.667,0.182,16.09,105.61,13.63,14.66,25.01,0,110.7,13.14,14.43,278.4
"2016-04-25 00:46:30",1576824,5.071,316.7,1.534,0.087,16.23,105.61,13.63,14.66,24.84,0,110.7,13.14,14.43,278.7
"2016-04-25 00:47:00",1576825,4.731,316.2,0.969,0.176,16.18,105.61,13.63,14.67,24.84,0,110.7,13.14,14.43,278.2
"2016-04-25 00:47:30",1576826,4.428,323.6,2.761,0.153,16.2,105.6103,13.63,14.67,25.08,0,110.7,13.14,14.43,285.6
"2016-04-25 00:48:00",1576827,4.834,321,5.558,0.096,16.21,105.61,13.63,14.67,25.35,0,110.6,13.14,14.43,283.0
"2016-04-25 00:48:30",1576828,5.032,316.7,0.836,0.09,16.45,105.61,13.63,14.66,24.93,0,110.7,13.14,14.43,278.7
"2016-04-25 00:49:00",1576829,4.994,314.5,0.722,0.112,16.21,105.61,13.63,14.69,24.59,0,110.7,13.14,14.43,276.5
"2016-04-25 00:49:30",1576830,4.821,315.7,0.865,0.051,16.28,105.61,13.63,14.67,24.49,0,110.6,13.14,14.43,277.7
"2016-04-25 00:50:00",1576831,5.459,318.9,6.188,1.308,17.88,105.61,13.63,14.79,24.49,0,110.7,13.09,14.43,280.9
"2016-04-25 00:50:30",1576832,5.366,320.7,6.773,1.336,17.8,105.6103,13.63,14.85,24.62,0,110.7,13.09,14.43,282.7
"2016-04-25 00:51:00",1576833,4.429,316.3,1.187,0.16,16.13,105.6106,13.64,14.68,24.51,0,110.7,13.14,14.44,278.3
"2016-04-25 00:51:30",1576834,4.584,316.1,0.937,0.173,15.94,105.6103,13.63,14.68,24.56,0,110.6,13.13,14.43,278.1
"2016-04-25 00:52:00",1576835,4.423,314.2,1.36,0.107,15.89,105.6109,13.64,14.66,24.6,0,110.6,13.14,14.44,276.2
"2016-04-25 00:52:30",1576836,3.915,314.2,0.827,0.107,16.04,105.6106,13.64,14.69,24.65,0,110.6,13.14,14.44,276.2
"2016-04-25 00:53:00",1576837,3.949,319.5,2.514,0.119,15.98,105.6109,13.64,14.69,24.68,0,110.6,13.14,14.44,281.5
"2016-04-25 00:53:30",1576838,4.908,319.5,6.071,1.25,17.23,105.6121,13.64,14.8,24.89,0,110.7,13.1,14.44,281.5
"2016-04-25 00:54:00",1576839,6.218,323.7,7.159,1.414,19.46,105.6103,13.63,14.96,25.04,0,110.7,13.1,14.43,285.7
"2016-04-25 00:54:30",1576840,5.243,318.3,6.8,1.555,17.56,105.6112,13.64,14.82,24.85,0,110.6,13.09,14.44,280.3
"2016-04-25 00:55:00",1576841,3.904,313,0.967,0.074,15.66,105.6133,13.64,14.68,24.83,0,110.6,13.14,14.44,275.0
"2016-04-25 00:55:30",1576842,4.032,314.9,1.142,0.069,15.78,105.6147,13.65,14.7,24.64,0,110.6,13.14,14.45,276.9
"2016-04-25 00:56:00",1576843,5.093,319.4,7.791,1.576,18.61,105.6171,13.65,14.89,24.7,0,110.6,13.09,14.45,281.4
"2016-04-25 00:56:30",1576844,3.887,311.9,4.054,0.963,16.34,105.6174,13.65,14.78,24.6,0,110.6,13.09,14.45,273.9
"2016-04-25 00:57:00",1576845,3.213,307.4,1.095,0.056,15.56,105.6189,13.66,14.69,24.42,0,110.6,13.14,14.46,269.4
"2016-04-25 00:57:30",1576846,3.391,311,1.823,0.088,15.74,105.6186,13.66,14.68,24.56,0,110.6,13.14,14.46,273.0
"2016-04-25 00:58:00",1576847,3.375,314.4,3.532,0.07,15.87,105.6181,13.65,14.7,24.6,0,110.6,13.14,14.45,276.4
"2016-04-25 00:58:30",1576848,3.392,318.1,2.584,0.116,16.09,105.6125,13.64,14.67,24.62,0,110.6,13.14,14.44,280.1
"2016-04-25 00:59:00",1576849,3.798,324.5,7.684,1.303,17.55,105.6005,13.61,14.78,24.76,0,110.6,13.1,14.41,286.5
"2016-04-25 00:59:30",1576850,4.363,328.6,7.755,1.41,18.48,105.5905,13.58,14.8,24.96,0,110.6,13.1,14.38,290.6
"2016-04-25 01:00:00",1576851,3.591,324.6,6.612,1.215,17.11,105.5938,13.59,14.75,24.86,0,110.6,13.1,14.39,286.6
"2016-04-25 01:00:30",1576852,3.76,327.8,7.114,1.285,17.31,105.5976,13.6,14.83,24.85,0,110.6,13.1,14.40,289.8
"2016-04-25 01:01:00",1576853,2.92,321.7,0.991,0.091,15.32,105.5933,13.59,14.61,24.64,0,110.6,13.14,14.39,283.7
"2016-04-25 01:01:30",1576854,3.409,325.5,6.255,1.294,16.77,105.5839,13.57,14.66,24.72,0,110.6,13.1,14.37,287.5
"2016-04-25 01:02:00",1576855,3.263,328,7.057,1.339,17.39,105.5724,13.54,14.79,25.05,0,110.6,13.1,14.34,290.0
"2016-04-25 01:02:30",1576856,2.808,322.2,4.469,1.096,16.33,105.5737,13.54,14.6,24.9,0,110.6,13.09,14.34,284.2
"2016-04-25 01:03:00",1576857,2.541,316.5,1.816,0.105,15.21,105.5623,13.51,14.57,24.87,0,110.6,13.14,14.31,278.5
"2016-04-25 01:03:30",1576858,2.554,316.8,0.91,0.08,15.38,105.5448,13.47,14.55,24.79,0,110.6,13.14,14.27,278.8
"2016-04-25 01:04:00",1576859,2.652,312.8,1.642,0.088,15.69,105.544,13.47,14.52,24.76,0,110.6,13.14,14.26,274.8
"2016-04-25 01:04:30",1576860,2.529,316.4,1.84,0.085,15.79,105.5308,13.43,14.51,24.76,0,110.6,13.15,14.23,278.4
"2016-04-25 01:05:00",1576861,2.861,322.1,6.898,1.145,16.93,105.5116,13.38,14.5,24.93,0,110.6,13.1,14.18,284.1
"2016-04-25 01:05:30",1576862,3.622,325.3,8.34,1.453,18.74,105.5094,13.38,14.68,25.21,0,110.6,13.1,14.18,287.3
"2016-04-25 01:06:00",1576863,2.35,320.5,4.296,0.751,16.15,105.4905,13.33,14.42,25.05,0,110.6,13.1,14.13,282.5
"2016-04-25 01:06:30",1576864,2.316,318.4,2.1,0.04,15.68,105.477,13.29,14.4,25.05,0,110.6,13.15,14.09,280.4
"2016-04-25 01:07:00",1576865,3.749,322.9,7.825,1.43,18.15,105.4755,13.29,14.57,25.24,0,110.6,13.1,14.09,284.9
"2016-04-25 01:07:30",1576866,2.934,317.3,5.676,1.102,16.67,105.4572,13.24,14.5,25.18,0,110.6,13.1,14.04,279.3
"2016-04-25 01:08:00",1576867,3.283,313.6,4.763,1.263,17.22,105.4429,13.21,14.42,25.15,0,110.6,13.1,14.00,275.6
"2016-04-25 01:08:30",1576868,3.369,308.4,6.898,1.36,17.36,105.4386,13.2,14.41,25.03,0,110.6,13.1,13.99,270.4
"2016-04-25 01:09:00",1576869,2.338,302.3,1.229,0.072,15.82,105.4184,13.14,14.29,24.93,0,110.6,13.15,13.94,264.3
"2016-04-25 01:09:30",1576870,2.175,299.5,1.77,0.095,15.63,105.4091,13.12,14.25,24.93,0,110.6,13.15,13.92,261.5
"2016-04-25 01:10:00",1576871,2.165,299.4,0.864,0.104,15.62,105.4009,13.1,14.23,24.96,0,110.6,13.15,13.90,261.4
"2016-04-25 01:10:30",1576872,2.288,297.9,0.986,0.06,15.83,105.3834,13.05,14.2,24.97,0,110.6,13.15,13.85,259.9
"2016-04-25 01:11:00",1576873,2.468,295.3,1.877,0.117,16.1,105.3779,13.04,14.18,24.98,0,110.6,13.16,13.84,257.3
"2016-04-25 01:11:30",1576874,3.544,297.9,9.11,1.379,17.67,105.3735,13.03,14.25,25.03,0,110.5,13.11,13.83,259.9
"2016-04-25 01:12:00",1576875,4.511,295,8.01,1.346,17.96,105.354,12.98,14.28,25.08,0,110.5,13.11,13.78,257.0
"2016-04-25 01:12:30",1576876,4.063,294.7,6.488,1.059,17.28,105.3506,12.97,14.19,25.11,0,110.6,13.11,13.77,256.7
"2016-04-25 01:13:00",1576877,3.488,289.7,2.811,0.252,15.73,105.349,12.97,14.1,25.12,0,110.6,13.16,13.76,251.7
"2016-04-25 01:13:30",1576878,4.124,291.9,6.484,1.394,17.05,105.3395,12.94,14.17,25.33,0,110.6,13.11,13.74,253.9
"2016-04-25 01:14:00",1576879,4.186,295.8,7.124,1.26,17.2,105.3321,12.92,14.18,25.3,0,110.6,13.11,13.72,257.8
"2016-04-25 01:14:30",1576880,3.711,296.3,3.291,0.583,15.84,105.3275,12.91,14.02,25.21,0,110.5,13.11,13.71,258.3
"2016-04-25 01:15:00",1576881,4.722,297.8,8.48,1.279,17.63,105.332,12.92,14.2,25.46,0,110.5,13.11,13.72,259.8
"2016-04-25 01:15:30",1576882,4.621,295.3,6.912,1.246,16.93,105.3305,12.92,14.02,25.28,0,110.5,13.11,13.72,257.3
"2016-04-25 01:16:00",1576883,3.477,285.3,3.597,0.296,15.82,105.3259,12.91,13.97,25.21,0,110.5,13.16,13.70,247.3
"2016-04-25 01:16:30",1576884,3.244,290.6,4.916,0.181,15.82,105.3122,12.87,13.96,25.21,0,110.5,13.16,13.67,252.6
"2016-04-25 01:17:00",1576885,3.413,292,2.411,0.164,15.98,105.3094,12.86,13.95,25.37,0,110.5,13.16,13.66,254.0
"2016-04-25 01:17:30",1576886,3.63,290.3,5.557,0.799,16.71,105.3091,12.86,14.02,25.49,0,110.5,13.12,13.66,252.3
"2016-04-25 01:18:00",1576887,5.315,301.5,7.683,1.443,18.58,105.3094,12.86,14.04,25.5,0,110.5,13.12,13.66,263.5
"2016-04-25 01:18:30",1576888,3.53,303.5,6.336,0.35,15.99,105.3094,12.86,13.97,25.54,0,110.5,13.17,13.66,265.5
"2016-04-25 01:19:00",1576889,2.9,309.2,2.692,0.315,15.68,105.3089,12.86,13.91,25.61,0,110.5,13.17,13.66,271.2
"2016-04-25 01:19:30",1576890,2.865,301.7,2.888,0.211,15.79,105.3035,12.85,13.92,25.6,0,110.5,13.17,13.65,263.7
"2016-04-25 01:20:00",1576891,4.58,301.6,5.672,1.449,18.4,105.2965,12.83,14.04,25.66,0,110.5,13.13,13.63,263.6
"2016-04-25 01:20:30",1576892,3.97,299.5,6.331,1.2,17.24,105.2897,12.81,13.96,25.57,0,110.5,13.12,13.61,261.5
"2016-04-25 01:21:00",1576893,3.951,302.2,7.659,1.3,17.26,105.2765,12.78,13.97,25.66,0,110.5,13.12,13.58,264.2
"2016-04-25 01:21:30",1576894,4.078,303.9,8.19,1.328,17.16,105.2756,12.78,13.96,25.72,0,110.5,13.12,13.57,265.9
"2016-04-25 01:22:00",1576895,3.493,299.3,2.677,0.148,15.86,105.2756,12.78,13.84,25.59,0,110.5,13.16,13.57,261.3
"2016-04-25 01:22:30",1576896,3.454,301.6,2.452,0.163,15.8,105.2756,12.78,13.84,25.61,0,110.5,13.17,13.57,263.6
"2016-04-25 01:23:00",1576897,3.349,298.4,1.742,0.12,15.77,105.2756,12.78,13.83,25.71,0,110.5,13.17,13.57,260.4
"2016-04-25 01:23:30",1576898,3.055,303,3.534,0.074,15.91,105.2756,12.78,13.84,25.76,0,110.5,13.17,13.57,265.0
"2016-04-25 01:24:00",1576899,3.52,306.8,6.596,1.197,17.45,105.2754,12.78,13.91,25.88,0,110.5,13.12,13.57,268.8
"2016-04-25 01:24:30",1576900,3.779,304.7,9.13,1.381,18.06,105.2725,12.77,14.02,26.01,0,110.5,13.12,13.57,266.7
"2016-04-25 01:25:00",1576901,3.222,298.8,3.878,0.841,16.57,105.2689,12.76,13.82,25.71,0,110.5,13.12,13.56,260.8
"2016-04-25 01:25:30",1576902,2.992,292.6,2.694,0.065,15.67,105.2693,12.76,13.82,25.61,0,110.5,13.17,13.56,254.6
"2016-04-25 01:26:00",1576903,2.898,290.1,1.881,0.063,15.71,105.2698,12.76,13.81,25.62,0,110.5,13.17,13.56,252.1
"2016-04-25 01:26:30",1576904,3.756,291.9,7.078,1.266,17.15,105.2625,12.74,13.85,25.66,0,110.5,13.12,13.54,253.9
"2016-04-25 01:27:00",1576905,4.516,292.7,8.35,1.399,18.29,105.2667,12.76,14.03,25.77,0,110.5,13.13,13.55,254.7
"2016-04-25 01:27:30",1576906,4.189,288.4,7.796,1.396,17.55,105.2637,12.75,13.83,25.59,0,110.5,13.13,13.54,250.4
"2016-04-25 01:28:00",1576907,4.463,287.8,6.795,1.447,17.92,105.2664,12.75,13.91,25.66,0,110.5,13.13,13.55,249.8
"2016-04-25 01:28:30",1576908,4.085,282.6,8.23,1.154,17.23,105.2637,12.75,13.89,25.59,0,110.5,13.13,13.54,244.6
"2016-04-25 01:29:00",1576909,3.147,280.8,3.6,0.115,15.77,105.2693,12.76,13.81,25.49,0,110.5,13.18,13.56,242.8
"2016-04-25 01:29:30",1576910,3.405,279.7,1.502,0.215,15.98,105.2688,12.76,13.79,25.49,0,110.5,13.18,13.56,241.7
"2016-04-25 01:30:00",1576911,3.32,276.3,4.382,0.178,16.06,105.2709,12.77,13.81,25.46,0,110.5,13.18,13.56,238.3
"2016-04-25 01:30:30",1576912,4.795,273.5,7.704,1.46,19.09,105.2724,12.77,13.96,25.69,0,110.5,13.13,13.57,235.5
"2016-04-25 01:31:00",1576913,4.43,277.3,7.674,1.215,18.08,105.2744,12.77,13.9,25.54,0,110.5,13.13,13.57,239.3
"2016-04-25 01:31:30",1576914,3.608,271.4,2.113,0.116,16.05,105.2771,12.78,13.79,25.34,0,110.5,13.18,13.58,233.4
"2016-04-25 01:32:00",1576915,3.616,274.2,1.756,0.112,15.77,105.2768,12.78,13.78,25.3,0,110.5,13.18,13.58,236.2
"2016-04-25 01:32:30",1576916,3.772,271.2,1.892,0.181,15.83,105.2774,12.78,13.79,25.19,0,110.5,13.18,13.58,233.2
"2016-04-25 01:33:00",1576917,5.219,281,8.74,1.425,18.35,105.2774,12.78,13.91,25.24,0,110.5,13.13,13.58,243.0
"2016-04-25 01:33:30",1576918,4.675,280.4,5.542,1.29,17.36,105.2774,12.78,13.88,25.28,0,110.5,13.13,13.58,242.4
"2016-04-25 01:34:00",1576919,3.754,271,3.474,0.174,16.08,105.2774,12.78,13.78,25.02,0,110.5,13.18,13.58,233.0
"2016-04-25 01:34:30",1576920,4.696,274.2,7.425,1.403,18.19,105.2774,12.78,13.98,25.37,0,110.5,13.13,13.58,236.2
"2016-04-25 01:35:00",1576921,3.908,266.4,8.11,1.333,17.18,105.2774,12.78,13.85,25.46,0,110.5,13.13,13.58,228.4
"2016-04-25 01:35:30",1576922,3.844,269.9,2.545,0.292,16.08,105.2774,12.78,13.78,25.26,0,110.5,13.18,13.58,231.9
"2016-04-25 01:36:00",1576923,3.619,273.5,1.498,0.138,16.13,105.2774,12.78,13.78,25.14,0,110.5,13.18,13.58,235.5
"2016-04-25 01:36:30",1576924,3.675,282.9,8.34,1.205,17.33,105.2774,12.78,13.85,25.13,0,110.5,13.13,13.58,244.9
"2016-04-25 01:37:00",1576925,4.52,281.9,8.11,1.44,19.39,105.2774,12.78,13.97,25.22,0,110.5,13.13,13.58,243.9
"2016-04-25 01:37:30",1576926,2.69,272.1,2.746,0.176,16.24,105.2774,12.78,13.78,25.12,0,110.5,13.18,13.58,234.1
"2016-04-25 01:38:00",1576927,2.926,278.3,1.767,0.139,15.78,105.2774,12.78,13.78,25.14,0,110.5,13.17,13.58,240.3
"2016-04-25 01:38:30",1576928,2.765,275.4,2.683,0.105,15.73,105.2774,12.78,13.77,25.15,0,110.5,13.18,13.58,237.4
"2016-04-25 01:39:00",1576929,3.537,277.6,5.903,0.939,16.69,105.2774,12.78,13.84,25.31,0,110.4,13.13,13.58,239.6
"2016-04-25 01:39:30",1576930,3.885,282.1,7.699,1.369,17.74,105.2774,12.78,13.9,25.39,0,110.5,13.13,13.58,244.1
"2016-04-25 01:40:00",1576931,3.79,277.9,9.08,1.148,17.3,105.2774,12.78,13.88,25.34,0,110.5,13.13,13.58,239.9
"2016-04-25 01:40:30",1576932,3.157,268.8,2.288,0.162,16.08,105.2774,12.78,13.78,25.17,0,110.4,13.18,13.58,230.8
"2016-04-25 01:41:00",1576933,3.628,275,5.892,1.159,17.35,105.2774,12.78,13.89,25.15,0,110.4,13.13,13.58,237.0
"2016-04-25 01:41:30",1576934,3.873,280.1,6.611,1.37,17.82,105.2777,12.78,13.92,25.11,0,110.5,13.13,13.58,242.1
"2016-04-25 01:42:00",1576935,2.925,273.8,1.809,0.104,16.41,105.2786,12.79,13.82,25.1,0,110.5,13.18,13.58,235.8
"2016-04-25 01:42:30",1576936,2.769,278.1,2.643,0.128,16.26,105.2767,12.78,13.78,25.03,0,110.4,13.18,13.58,240.1
"2016-04-25 01:43:00",1576937,3.187,283.5,7.357,1.166,17.23,105.28,12.79,13.8,25.02,0,110.4,13.13,13.59,245.5
"2016-04-25 01:43:30",1576938,3.856,291.5,6.932,1.352,18.93,105.2795,12.79,13.98,25.12,0,110.4,13.13,13.58,253.5
"2016-04-25 01:44:00",1576939,2.364,285.5,5.491,0.82,16.43,105.2778,12.78,13.77,24.87,0,110.4,13.14,13.58,247.5
"2016-04-25 01:44:30",1576940,2.059,278.7,2.66,0.063,15.86,105.279,12.79,13.78,24.97,0,110.4,13.18,13.58,240.7
"2016-04-25 01:45:00",1576941,2.068,279.9,2.784,0.097,15.82,105.2799,12.79,13.79,24.92,0,110.4,13.19,13.59,241.9
"2016-04-25 01:45:30",1576942,1.846,286.4,2.823,0.081,15.76,105.2775,12.78,13.77,24.91,0,110.4,13.19,13.58,248.4
"2016-04-25 01:46:00",1576943,2.144,293.2,4.659,0.89,16.22,105.275,12.78,13.79,24.89,0,110.4,13.15,13.57,255.2
"2016-04-25 01:46:30",1576944,3.254,297.7,7.628,1.406,19.02,105.2775,12.78,13.96,25.03,0,110.4,13.15,13.58,259.7